Cook, MN

6:54 AM CDT on June 27, 2017 (GMT -0500)
Cook Municipal

Weather History for KCQM - December, 2012

Change the Weather History Date:

Tuesday, December 4, 2012

  Actual Average Record
Temperature  
Mean Temperature 17 °F -  
Max Temperature 24 °F 26 °F 44 °F (2015)
Min Temperature 10 °F 11 °F -16 °F (2002)
Degree Days  
Heating Degree Days 48    
Moisture  
Dew Point 9 °F    
Average Humidity 75    
Maximum Humidity 86    
Minimum Humidity 68    
Precipitation  
Precipitation 0.00 in - - ()
Sea Level Pressure  
Sea Level Pressure 30.08 in    
Wind  
Wind Speed 14 mph (West)    
Max Wind Speed 22 mph    
Max Gust Speed 32 mph    
Visibility 10 miles    
Events Snow    
Averages and records for this station are not official NWS values.
T = Trace of Precipitation, MM = Missing Value Source: NWS Daily Summary

Daily Weather History Graph

Daily Weather History Graph

Search for Another Location

Airport or City:

Trip Planner

Search our weather history database for the weather conditions in past years. The results will help you decide how hot, cold, wet, or windy it might be!

Date:

Astronomy

Dec. 04, 2012 Rise Set
Actual Time 7:43 AM CST 4:19 PM CST
Civil Twilight 7:07 AM CST 4:54 PM CST
Nautical Twilight 6:28 AM CST 5:33 PM CST
Astronomical Twilight 5:50 AM CST 6:11 PM CST
Moon 10:24 PM CST (12/4) 11:22 AM CST (12/4)
Length of Visible Light 9h 47m
Length of Day
8h 36m
Waning Gibbous, 69% of the Moon is Illuminated
Dec 4
Waning Gibbous
Dec 6
Last Quarter
Dec 13
New
Dec 19
First Quarter
Dec 28
Full

Hourly Weather History & Observations

Time (CST) Temp. Windchill Dew Point Humidity Pressure Visibility Wind Dir Wind Speed Gust Speed Precip Events Conditions
12:16 AM 24.8 °F 10.0 °F 15.8 °F 69% 29.72 in 10.0 mi West 21.9 mph 32.2 mph N/A   Overcast
12:37 AM 23.0 °F 8.7 °F 15.8 °F 74% 29.74 in 10.0 mi West 18.4 mph 28.8 mph N/A   Mostly Cloudy
12:57 AM 21.2 °F 6.4 °F 14.0 °F 74% 29.74 in 10.0 mi West 18.4 mph 26.5 mph N/A   Scattered Clouds
1:16 AM 21.2 °F 8.3 °F 14.0 °F 74% 29.76 in 10.0 mi West 13.8 mph 25.3 mph N/A   Mostly Cloudy
1:37 AM 21.2 °F 7.8 °F 12.2 °F 68% 29.77 in 10.0 mi WSW 15.0 mph 23.0 mph N/A   Overcast
1:57 AM 19.4 °F 3.6 °F 12.2 °F 74% 29.79 in 10.0 mi WSW 19.6 mph 25.3 mph N/A Snow Light Snow
2:16 AM 19.4 °F 4.5 °F 12.2 °F 74% 29.80 in 10.0 mi West 17.3 mph 26.5 mph N/A   Overcast
2:57 AM 17.6 °F 0.5 °F 10.4 °F 73% 29.84 in 10.0 mi West 21.9 mph 29.9 mph N/A   Overcast
3:16 AM 17.6 °F 3.2 °F 10.4 °F 73% 29.83 in 10.0 mi West 15.0 mph 24.2 mph N/A Snow Light Snow
3:37 AM 17.6 °F 4.3 °F 10.4 °F 73% 29.85 in 10.0 mi West 12.7 mph 19.6 mph N/A   Mostly Cloudy
3:57 AM 15.8 °F 2.7 °F 8.6 °F 73% 29.85 in 10.0 mi West 11.5 mph 18.4 mph N/A   Overcast
4:16 AM 15.8 °F 0.3 °F 8.6 °F 73% 29.87 in 10.0 mi West 16.1 mph 24.2 mph N/A   Overcast
4:37 AM 14.0 °F -2.0 °F 6.8 °F 73% 29.87 in 10.0 mi West 16.1 mph 26.5 mph N/A   Mostly Cloudy
4:57 AM 12.2 °F -3.7 °F 6.8 °F 79% 29.89 in 10.0 mi West 15.0 mph 20.7 mph N/A   Scattered Clouds
5:16 AM 12.2 °F -3.1 °F 6.8 °F 79% 29.89 in 10.0 mi West 13.8 mph 18.4 mph N/A   Clear
5:37 AM 12.2 °F -3.1 °F 6.8 °F 79% 29.90 in 10.0 mi West 13.8 mph 21.9 mph N/A   Scattered Clouds
6:16 AM 12.2 °F -3.7 °F 5.0 °F 73% 29.92 in 10.0 mi West 15.0 mph 26.5 mph N/A   Clear
6:37 AM 12.2 °F -5.3 °F 5.0 °F 73% 29.93 in 10.0 mi West 18.4 mph 25.3 mph N/A   Clear
6:57 AM 10.4 °F -7.7 °F 5.0 °F 79% 29.94 in 10.0 mi West 18.4 mph 24.2 mph N/A   Clear
7:16 AM 10.4 °F -4.1 °F 5.0 °F 79% 29.94 in 10.0 mi West 11.5 mph - N/A   Clear
7:37 AM 10.4 °F -7.2 °F 5.0 °F 79% 29.95 in 10.0 mi West 17.3 mph 24.2 mph N/A   Scattered Clouds
7:56 AM 10.4 °F -4.1 °F 5.0 °F 79% 29.97 in 10.0 mi West 11.5 mph 20.7 mph N/A   Overcast
8:17 AM 10.4 °F -4.1 °F 5.0 °F 79% 29.98 in 10.0 mi West 11.5 mph - N/A   Overcast
8:37 AM 10.4 °F -4.8 °F 5.0 °F 79% 29.99 in 7.0 mi West 12.7 mph 20.7 mph N/A   Overcast
8:56 AM 10.4 °F -6.0 °F 5.0 °F 79% 30.00 in 5.0 mi West 15.0 mph 20.7 mph N/A Snow Light Snow
9:17 AM 10.4 °F -6.6 °F 5.0 °F 79% 30.00 in 7.0 mi West 16.1 mph 21.9 mph N/A Snow Light Snow
9:37 AM 10.4 °F -7.2 °F 5.0 °F 79% 30.02 in 10.0 mi West 17.3 mph 24.2 mph N/A Snow Light Snow
9:56 AM 10.4 °F -7.2 °F 5.0 °F 79% 30.03 in 10.0 mi West 17.3 mph 21.9 mph N/A   Overcast
10:17 AM 10.4 °F -7.7 °F 5.0 °F 79% 30.05 in 7.0 mi West 18.4 mph 25.3 mph N/A   Overcast
10:37 AM 12.2 °F -4.3 °F 5.0 °F 73% 30.05 in 10.0 mi West 16.1 mph 25.3 mph N/A   Overcast
10:56 AM 12.2 °F -4.8 °F 6.8 °F 79% 30.06 in 10.0 mi West 17.3 mph 24.2 mph N/A   Overcast
11:17 AM 12.2 °F -4.3 °F 6.8 °F 79% 30.07 in 10.0 mi West 16.1 mph 24.2 mph N/A   Overcast
11:36 AM 14.0 °F -3.0 °F 6.8 °F 73% 30.08 in 10.0 mi West 18.4 mph 25.3 mph N/A   Overcast
12:16 PM 15.8 °F 2.1 °F 6.8 °F 68% 30.10 in 10.0 mi West 12.7 mph 24.2 mph N/A   Overcast
12:37 PM 15.8 °F 0.3 °F 8.6 °F 73% 30.10 in 10.0 mi West 16.1 mph - N/A Snow Light Snow
12:57 PM 15.8 °F 1.4 °F 8.6 °F 73% 30.11 in 7.0 mi WNW 13.8 mph 19.6 mph N/A Snow Light Snow
1:16 PM 17.6 °F 2.7 °F 8.6 °F 68% 30.12 in 10.0 mi WNW 16.1 mph 20.7 mph N/A Snow Light Snow
1:37 PM 17.6 °F 3.2 °F 8.6 °F 68% 30.12 in 10.0 mi West 15.0 mph - N/A Snow Light Snow
1:57 PM 17.6 °F 4.3 °F 10.4 °F 73% 30.14 in 10.0 mi West 12.7 mph 24.2 mph N/A Snow Light Snow
2:16 PM 19.4 °F 5.0 °F 10.4 °F 68% 30.15 in 10.0 mi West 16.1 mph - N/A Snow Light Snow
2:37 PM 17.6 °F 5.0 °F 8.6 °F 68% 30.16 in 10.0 mi West 11.5 mph 16.1 mph N/A   Overcast
2:57 PM 19.4 °F 6.0 °F 10.4 °F 68% 30.17 in 10.0 mi West 13.8 mph 19.6 mph N/A   Overcast
3:16 PM 19.4 °F 7.9 °F 10.4 °F 68% 30.18 in 10.0 mi WNW 10.4 mph 17.3 mph N/A   Overcast
3:37 PM 19.4 °F 9.5 °F 10.4 °F 68% 30.19 in 10.0 mi WNW 8.1 mph - N/A   Overcast
3:56 PM 17.6 °F 7.3 °F 8.6 °F 68% 30.19 in 10.0 mi NW 8.1 mph - N/A   Overcast
4:17 PM 17.6 °F 7.3 °F 8.6 °F 68% 30.21 in 10.0 mi NW 8.1 mph - N/A   Overcast
4:37 PM 17.6 °F 7.3 °F 8.6 °F 68% 30.22 in 10.0 mi NW 8.1 mph - N/A   Overcast
4:56 PM 17.6 °F 6.4 °F 8.6 °F 68% 30.23 in 10.0 mi WNW 9.2 mph - N/A   Overcast
5:17 PM 17.6 °F 7.3 °F 10.4 °F 73% 30.25 in 10.0 mi West 8.1 mph - N/A   Overcast
5:36 PM 17.6 °F 6.4 °F 10.4 °F 73% 30.26 in 10.0 mi West 9.2 mph - N/A   Overcast
5:56 PM 17.6 °F 7.3 °F 10.4 °F 73% 30.26 in 10.0 mi West 8.1 mph - N/A   Overcast
6:17 PM 17.6 °F 8.2 °F 10.4 °F 73% 30.26 in 10.0 mi West 6.9 mph - N/A   Overcast
6:36 PM 17.6 °F 6.4 °F 10.4 °F 73% 30.27 in 10.0 mi West 9.2 mph - N/A   Overcast
6:56 PM 17.6 °F 9.3 °F 10.4 °F 73% 30.28 in 10.0 mi West 5.8 mph - N/A   Overcast
7:17 PM 17.6 °F 7.3 °F 10.4 °F 73% 30.29 in 10.0 mi West 8.1 mph - N/A   Overcast
7:36 PM 17.6 °F 7.3 °F 10.4 °F 73% 30.30 in 10.0 mi West 8.1 mph - N/A Snow Light Snow
7:57 PM 17.6 °F 9.3 °F 10.4 °F 73% 30.30 in 7.0 mi WNW 5.8 mph - N/A Snow Light Snow
8:17 PM 17.6 °F 8.2 °F 10.4 °F 73% 30.31 in 10.0 mi WNW 6.9 mph - N/A Snow Light Snow
8:36 PM 17.6 °F 10.7 °F 10.4 °F 73% 30.31 in 10.0 mi WNW 4.6 mph - N/A Snow Light Snow
8:57 PM 17.6 °F 12.3 °F 10.4 °F 73% 30.30 in 10.0 mi WNW 3.5 mph - N/A Snow Light Snow
9:17 PM 15.8 °F - 10.4 °F 79% 30.30 in 10.0 mi Calm Calm - N/A Snow Light Snow
9:36 PM 15.8 °F - 10.4 °F 79% 30.29 in 10.0 mi Calm Calm - N/A   Overcast
9:57 PM 14.0 °F - 10.4 °F 86% 30.30 in 10.0 mi Calm Calm - N/A Snow Light Snow
10:16 PM 15.8 °F - 10.4 °F 79% 30.31 in 10.0 mi Calm Calm - N/A Snow Light Snow
10:37 PM 15.8 °F - 10.4 °F 79% 30.32 in 10.0 mi Calm Calm - N/A Snow Light Snow
10:57 PM 15.8 °F - 12.2 °F 86% 30.33 in 7.0 mi Calm Calm - N/A Snow Light Snow
11:16 PM 15.8 °F - 12.2 °F 86% 30.34 in 10.0 mi Calm Calm - N/A Snow Light Snow
11:37 PM 15.8 °F 10.2 °F 10.4 °F 79% 30.36 in 10.0 mi WSW 3.5 mph - N/A Snow Light Snow
11:57 PM 15.8 °F - 12.2 °F 86% 30.36 in 10.0 mi Calm Calm - N/A Snow Light Snow